• MPC Preparation (Info)

  • MPEC 2013-N25 : 2013 NV6

    The following Minor Planet Electronic Circular may be linked-to from your own Web pages, but must not otherwise be redistributed electronically.

    A form allowing access to any MPEC is at the bottom of this page.


    Read MPEC 2013-N24 Read MPEC 2013-N26


    M.P.E.C. 2013-N25                                Issued 2013 July 7, 21:20 UT
    
         The Minor Planet Electronic Circulars contain information on unusual
             minor planets and routine data on comets.  They are published
       on behalf of Commission 20 of the International Astronomical Union by the
              Minor Planet Center, Smithsonian Astrophysical Observatory,
                              Cambridge, MA 02138, U.S.A.
    
                 Prepared using the Tamkin Foundation Computer Network
    
                                  MPC@CFA.HARVARD.EDU
                URL https://www.minorplanetcenter.net/    ISSN 1523-6714
    
                                       2013 NV6
    
    Observations:
         K13N06V* C2013 07 01.33161 16 17 24.341-18 49 23.21         21.5 wLEN025F51
         K13N06V  C2013 07 01.34497 16 17 23.107-18 49 16.64         21.2 wLEN025F51
         K13N06V  C2013 07 01.35829 16 17 21.893-18 49 09.96         21.4 wLEN025F51
         K13N06V  C2013 07 02.18206716 16 08.94 -18 42 16.3          21.0 RqEN025W85
         K13N06V  C2013 07 02.18574616 16 08.60 -18 42 14.6          21.5 RqEN025W85
         K13N06V  C2013 07 02.18947616 16 08.28 -18 42 12.7          21.5 RqEN025W85
         K13N06V  C2013 07 02.19127916 16 08.07 -18 42 11.8          21.8 RqEN025W85
         K13N06V  C2013 07 02.19314316 16 07.92 -18 42 10.7          22.2 RqEN025W85
         K13N06V  C2013 07 02.19677316 16 07.62 -18 42 09.0          21.3 RqEN025W85
         K13N06V _C2013 07 02.41498916 15 48.486-18 40 25.73         20.8 RtEN025568
         K13N06V _C2013 07 02.41624116 15 48.371-18 40 25.04         20.9 RtEN025568
         K13N06V _C2013 07 02.41749416 15 48.264-18 40 24.41         20.8 RtEN025568
         K13N06V |C2013 07 03.02450 16 14 55.84 -18 35 20.8          21.2 VuEN025807
         K13N06V |C2013 07 03.03138 16 14 55.25 -18 35 16.7          21.2 VuEN025807
         K13N06V |C2013 07 03.03808 16 14 54.61 -18 35 13.7          21.1 VuEN025807
         K13N06V |C2013 07 04.10468 16 13 23.33 -18 26 30.2          21.1 VuEN025807
         K13N06V |C2013 07 04.11174 16 13 22.73 -18 26 27.2          21.2 VuEN025807
         K13N06V |C2013 07 04.11827 16 13 22.15 -18 26 23.7          21.1 VuEN025807
         K13N06V KC2013 07 07.26277 16 09 05.33 -18 01 12.0          21.1 RoEN025291
         K13N06V KC2013 07 07.26641 16 09 05.05 -18 01 10.5          21.1 RoEN025291
         K13N06V KC2013 07 07.27005 16 09 04.71 -18 01 08.6          20.6 RoEN025291
    
    Observer details:
    291 LPL/Spacewatch II.  Observer T. H. Bressi.  1.8-m f/2.7 reflector + CCD.
    568 Mauna Kea.  Observers R. J. Wainscoat, M. Micheli, D. Woodworth.  Measurer
        M. Micheli.  3.6-m Canada-France-Hawaii Telescope + CCD.
    807 Cerro Tololo.  Observers T. Linder, R. Holmes.  0.41-m f/11
        Ritchey-Chretien + CCD.
    F51 Pan-STARRS 1, Haleakala.  Observers N. Primak, A. Schultz, S. Watters,
        T. Goggia, K. Chambers.  Measurer PS1 Science Consortium.  1.8-m
        Ritchey-Chretien + CCD.
    W85 Cerro Tololo-LCOGT A.  Observer T. Lister.  1.0-m f/8 Ritchey-Chretien
        + CCD.
    
    Orbital elements:
    2013 NV6                                                 Earth MOID = 0.2679 AU
    Epoch 2013 Apr. 18.0 TT = JDT 2456400.5                 MPC
    M 276.24562              (2000.0)            P               Q
    n   0.32568328     Peri.  151.65225     +0.66114986     -0.67564077
    a   2.0922122      Node   254.86720     +0.60860244     +0.73721729
    e   0.7627097      Incl.   19.74852     +0.43872992     -0.00449580
    P   3.03           H   17.6           G   0.15           U   9
    Residuals in seconds of arc
    130701 F51  0.0   0.1+    130702 W85  0.2+  0.0     130703 807  0.7-  0.1-
    130701 F51  0.1-  0.0     130702 W85  0.5+  0.1-    130704 807  0.3-  0.1+
    130701 F51  0.1-  0.1+    130702 568  0.0   0.0     130704 807  0.1-  0.4-
    130702 W85  0.5+  0.0     130702 568  0.0   0.1+    130704 807  0.3-  0.1-
    130702 W85  0.4+  0.2-    130702 568  0.0   0.1+    130707 291  0.1+  0.2+
    130702 W85  0.6+  0.2-    130703 807  0.2-  0.5-    130707 291  0.3+  0.1-
    130702 W85  0.1-  0.2-    130703 807  0.0   0.2+    130707 291  0.3-  0.1+
    
    Ephemeris:
    2013 NV6                 a,e,i = 2.09, 0.76, 20                  q = 0.4965
    Date    TT    R. A. (2000) Decl.     Delta      r     Elong.  Phase     V
    2013 06 07    16 57 55.8 -22 04 42   1.5925  2.6074   179.2     0.3    20.8
    ...
    2013 06 22    16 32 14.1 -20 07 22   1.5260  2.5007   158.8     8.4    21.1
    ...
    2013 06 30    16 19 24.5 -19 00 24   1.5186  2.4410   148.0    12.7    21.2
    ...
    2013 07 06    16 10 46.4 -18 11 12   1.5242  2.3949   140.1    15.8    21.3
    2013 07 07    16 09 26.3 -18 03 13   1.5260  2.3871   138.8    16.3    21.3
    2013 07 08    16 08 08.0 -17 55 19   1.5280  2.3793   137.6    16.8    21.3
    ...
    2013 07 14    16 01 01.4 -17 09 57   1.5442  2.3316   130.0    19.5    21.4
    ...
    2013 07 22    15 53 35.1 -16 16 14   1.5750  2.2662   120.5    22.7    21.4
    ...
    2013 08 06    15 46 09.3 -15 00 45   1.6498  2.1372   104.1    27.4    21.6
    
    A. U. Tomatic                (C) Copyright 2013 MPC           M.P.E.C. 2013-N25
    

    Read MPEC 2013-N24 Read MPEC 2013-N26


    MPEC number:

    Enter an MPEC number in one of the following forms:

    • 1997-B01 (the full form)
    • J97B01 (the packed version of the full form)
    • B01 (the abbreviated form)